GW6539 Weather Reports


time (UTC)temp
C
wind
direction
speed
KPH
gust
KPH
rain 1hr
cm
rain 24hr
cm
rain mn
cm
humidity
%
barometer
mb
20260502160324 26 56 0.0 0.0 0.00 0.03 0.03 88 1011.5
20260502152253 26 63 12.9 17.7 0.00 0.00 0.00 85 1012.2
20260502151750 26 60 3.2 6.4 0.00 0.00 0.00 84 1012.2
20260502151247 26 60 0.0 0.0 0.00 0.00 0.00 84 1012.2
20260502150745 26 60 0.0 0.0 0.00 0.00 0.00 84 1012.2
20260502150241 26 60 0.0 3.2 0.00 0.00 0.00 84 1012.2
20260502130630 26 51 6.4 6.4 0.00 1.60 1.60 86 1013.2
20260502130128 26 87 1.6 4.8 0.00 1.60 1.60 86 1013.2
20260502123613 27 53 8.0 8.0 0.00 1.60 1.60 85 1012.8
20260502123109 27 61 6.4 11.3 0.00 1.60 1.60 85 1012.8
20260502122606 27 56 6.4 8.0 0.00 1.60 1.60 84 1012.8
20260502122103 27 56 11.3 16.1 0.00 1.60 1.60 82 1012.8
20260502121601 27 59 12.9 16.1 0.00 1.60 1.60 81 1012.5
20260502121058 27 45 8.0 11.3 0.00 1.60 1.60 82 1012.5
20260502120554 27 40 8.0 9.7 0.00 1.60 1.60 82 1012.5
20260502115550 27 53 8.0 11.3 0.00 1.60 1.60 82 1012.5
20260502115045 27 55 8.0 11.3 0.00 1.60 1.60 81 1012.5
20260502114542 27 43 8.0 9.7 0.00 1.60 1.60 81 1012.2
20260502114038 27 33 9.7 12.9 0.00 1.60 1.60 81 1012.2
20260502113536 27 37 9.7 14.5 0.00 1.60 1.60 81 1012.2
20260502113035 27 50 11.3 14.5 0.00 1.60 1.60 81 1012.2
20260502112532 27 44 6.4 8.0 0.00 1.60 1.60 81 1012.2
20260502112029 27 46 9.7 11.3 0.00 1.60 1.60 81 1012.2
20260502111527 27 41 6.4 8.0 0.00 1.60 1.60 81 1012.2
20260502111024 27 46 6.4 9.7 0.00 1.60 1.60 80 1011.8
20260502110521 27 46 6.4 8.0 0.00 1.60 1.60 80 1011.8
20260502110019 27 51 8.0 9.7 0.00 1.60 1.60 79 1012.2
20260502105516 27 43 9.7 12.9 0.00 1.60 1.60 79 1011.8
20260502105014 27 31 9.7 12.9 0.00 1.60 1.60 80 1011.8
20260502104510 27 43 9.7 12.9 0.00 1.60 1.60 80 1011.8
20260502104008 27 43 8.0 9.7 0.00 1.60 1.60 80 1011.8
20260502103505 27 40 8.0 9.7 0.00 1.60 1.60 80 1011.8
20260502103003 27 47 8.0 9.7 0.00 1.60 1.60 80 1011.8
20260502102459 27 47 8.0 9.7 0.00 1.60 1.60 80 1011.8
20260502101956 27 47 8.0 9.7 0.00 1.60 1.60 80 1011.5
20260502101454 27 50 6.4 9.7 0.00 1.60 1.60 80 1011.5
20260502100953 27 43 8.0 11.3 0.00 1.60 1.60 80 1011.5
20260502100451 27 38 6.4 8.0 0.00 1.60 1.60 80 1011.5
20260502091425 27 37 9.7 11.3 0.00 1.60 1.60 79 1010.8
20260502090922 27 32 9.7 11.3 0.00 1.60 1.60 79 1010.8
20260502090420 27 12 6.4 9.7 0.00 1.60 1.60 79 1010.8
20260502071314 30 59 16.1 20.9 0.00 1.60 1.60 70 1009.8
20260502070813 30 63 19.3 25.7 0.00 1.60 1.60 71 1009.8
20260502070310 30 57 22.5 27.4 0.00 1.60 1.60 71 1009.8
20260502065809 30 42 20.9 30.6 0.00 1.60 1.60 71 1009.8
20260502065306 30 36 16.1 22.5 0.00 1.60 1.60 72 1009.8
20260502064804 30 58 24.1 30.6 0.00 1.60 1.60 71 1009.4
20260502064302 30 54 19.3 25.7 0.00 1.60 1.60 70 1009.8
20260502063759 30 62 22.5 30.6 0.00 1.60 1.60 70 1009.4
20260502063257 30 60 20.9 25.7 0.00 1.60 1.60 70 1009.4
20260502062753 30 50 14.5 19.3 0.00 1.60 1.60 70 1009.8
20260502062251 30 65 20.9 24.1 0.00 1.60 1.60 68 1009.4
20260502061749 30 69 25.7 37.0 0.00 1.60 1.60 68 1009.4
20260502061248 30 49 16.1 24.1 0.00 1.60 1.60 69 1009.4
20260502060747 30 72 24.1 30.6 0.00 1.60 1.60 69 1009.4
20260502060243 30 61 22.5 25.7 0.00 1.60 1.60 68 1009.4
20260502055741 30 62 19.3 25.7 0.00 1.60 1.60 69 1009.8
20260502055238 30 82 19.3 25.7 0.00 1.60 1.60 67 1009.8
20260502054737 30 79 17.7 24.1 0.00 1.60 1.60 68 1009.4
20260502054235 30 31 19.3 24.1 0.00 1.60 1.60 68 1009.4
20260502053732 30 84 19.3 22.5 0.00 1.60 1.60 69 1009.8
20260502053229 30 54 20.9 27.4 0.00 1.60 1.60 67 1009.8
20260502052727 30 56 24.1 27.4 0.00 1.60 1.60 67 1009.8
20260502052225 30 74 17.7 24.1 0.00 1.60 1.60 67 1009.8
20260502051723 30 52 20.9 25.7 0.00 1.60 1.60 67 1009.8
20260502051221 30 67 24.1 32.2 0.00 1.60 1.60 66 1009.8
20260502050717 30 63 20.9 29.0 0.00 1.60 1.60 67 1009.8
20260502050213 30 74 24.1 30.6 0.00 1.60 1.60 66 1010.1
20260502045710 30 56 22.5 30.6 0.00 1.60 1.60 66 1010.1
20260502045208 30 76 25.7 30.6 0.00 1.60 1.60 66 1010.1
20260502044704 30 81 20.9 27.4 0.00 1.60 1.60 67 1010.1
20260502044200 30 75 24.1 29.0 0.00 1.60 1.60 66 1010.1
20260502043658 30 69 24.1 30.6 0.00 1.60 1.60 66 1010.1
20260502043155 30 65 22.5 30.6 0.00 1.60 1.60 66 1010.5
20260502042655 31 78 17.7 24.1 0.00 1.60 1.60 66 1010.5
20260502042152 30 74 17.7 24.1 0.00 1.60 1.60 65 1010.5
20260502041650 30 68 20.9 27.4 0.00 1.60 1.60 65 1010.5
20260502041147 31 48 17.7 22.5 0.00 1.60 1.60 65 1010.5
20260502040643 31 76 12.9 19.3 0.00 1.60 1.60 66 1010.5
20260502040141 30 70 24.1 33.8 0.00 1.60 1.60 66 1010.5
20260502035637 30 60 20.9 27.4 0.00 1.60 1.60 66 1010.5
20260502035134 30 71 14.5 22.5 0.00 1.60 1.60 65 1010.8
20260502034632 30 56 17.7 22.5 0.00 1.60 1.60 65 1010.8
20260502034130 30 69 25.7 33.8 0.00 1.60 1.60 66 1010.8
20260502033627 30 80 20.9 27.4 0.00 1.60 1.60 68 1011.1
20260502033125 30 68 24.1 30.6 0.00 1.60 1.60 67 1011.1
20260502032621 30 64 17.7 27.4 0.00 1.60 1.60 67 1011.1
20260502032117 30 76 19.3 25.7 0.00 1.60 1.60 67 1011.1
20260502031615 30 54 20.9 27.4 0.00 1.60 1.60 67 1011.5
20260502031113 30 79 17.7 29.0 0.00 1.60 1.60 67 1011.5
20260502030612 31 67 20.9 30.6 0.00 1.60 1.60 67 1011.5
20260502030109 30 41 16.1 20.9 0.00 1.60 1.60 68 1011.5
20260502025606 30 75 16.1 20.9 0.00 1.60 1.60 68 1011.5
20260502025104 30 82 24.1 29.0 0.00 1.60 1.60 68 1011.8
20260502024601 30 82 14.5 17.7 0.00 1.60 1.60 69 1011.8
20260502024100 30 45 14.5 20.9 0.00 1.60 1.60 68 1011.8
20260502023557 30 71 22.5 29.0 0.00 1.60 1.60 67 1011.8
20260502023054 30 65 25.7 32.2 0.00 1.60 1.60 67 1011.8
20260502022551 30 87 14.5 17.7 0.00 1.60 1.60 66 1011.8
20260502022048 30 60 22.5 25.7 0.00 1.60 1.60 66 1011.8
20260502021545 30 68 19.3 27.4 0.00 1.60 1.60 68 1012.2
20260502021042 30 64 20.9 24.1 0.00 1.60 1.60 66 1011.8
20260502020540 30 85 17.7 24.1 0.00 1.60 1.60 67 1011.8
20260502020037 30 66 19.3 25.7 0.00 1.60 1.60 68 1012.2
20260502015535 30 70 16.1 24.1 0.00 1.60 1.60 67 1011.8
20260502015031 30 77 14.5 19.3 0.00 1.60 1.60 68 1012.2
20260502014528 30 75 20.9 25.7 0.00 1.60 1.60 67 1012.2
20260502014025 30 73 19.3 24.1 0.00 1.60 1.60 69 1012.2
20260502013520 30 70 24.1 30.6 0.00 1.60 1.60 68 1011.8
20260502013017 30 55 20.9 25.7 0.00 1.60 1.60 68 1012.2
20260502012514 30 40 17.7 25.7 0.00 1.60 1.60 68 1012.2
20260502012012 30 89 20.9 27.4 0.00 1.60 1.60 68 1012.2
20260502011508 30 55 19.3 24.1 0.00 1.60 1.60 69 1012.2
20260502011004 30 85 22.5 25.7 0.00 1.60 1.60 69 1012.2
20260502010502 30 57 20.9 24.1 0.00 1.60 1.60 69 1012.2
20260502005957 30 54 20.9 25.7 0.00 1.60 1.60 70 1012.2
20260502005456 29 67 19.3 27.4 0.00 1.60 1.60 71 1012.2
20260502004953 30 45 17.7 22.5 0.00 1.60 1.60 70 1012.2
20260502004449 29 90 9.7 16.1 0.00 1.60 1.60 70 1012.2
20260502003946 29 56 17.7 22.5 0.00 1.60 1.60 72 1012.5
20260502003444 29 52 22.5 29.0 0.00 1.60 1.60 72 1012.5
20260502002939 30 54 19.3 25.7 0.00 1.60 1.60 71 1012.5
20260502002437 30 88 24.1 29.0 0.00 1.60 1.60 69 1012.5
20260502001934 29 79 11.3 17.7 0.00 1.60 1.60 72 1012.5
20260502001432 29 73 24.1 37.0 0.00 1.60 1.60 72 1012.5
20260502000929 29 82 20.9 27.4 0.00 1.60 1.60 71 1012.5
20260502000428 29 63 14.5 19.3 0.00 1.60 1.60 72 1012.2
20260501235923 29 76 24.1 33.8 0.00 1.60 1.60 71 1012.2
20260501235419 29 61 27.4 30.6 0.00 1.60 1.60 72 1012.2
20260501234914 29 70 19.3 27.4 0.00 1.60 1.60 72 1012.2
20260501234412 29 89 16.1 20.9 0.00 1.60 1.60 71 1012.5
20260501233910 29 55 22.5 29.0 0.00 1.60 1.60 72 1012.2
20260501233407 29 63 20.9 24.1 0.00 1.60 1.60 72 1012.2
20260501232903 29 60 20.9 25.7 0.00 1.60 1.60 73 1012.2
20260501232400 28 64 16.1 24.1 0.00 1.60 1.60 73 1012.2
20260501231858 28 70 20.9 29.0 0.00 1.60 1.60 74 1012.2
20260501231355 28 53 20.9 25.7 0.00 1.60 1.60 74 1012.2
20260501230854 28 57 22.5 30.6 0.00 1.60 1.60 74 1012.2
20260501230353 28 69 20.9 25.7 0.00 1.60 1.60 74 1012.2
20260501225849 28 66 19.3 27.4 0.00 1.60 1.60 74 1012.2
20260501225347 28 72 20.9 25.7 0.00 1.60 1.60 75 1012.2
20260501224843 28 58 17.7 27.4 0.00 1.60 1.60 75 1012.2
20260501224340 28 70 22.5 30.6 0.00 1.60 1.60 75 1012.2
20260501223837 28 67 16.1 20.9 0.00 1.60 1.60 75 1012.2
20260501223333 28 88 17.7 20.9 0.00 1.60 1.60 76 1012.2
20260501222828 28 64 19.3 25.7 0.00 1.60 1.60 76 1012.2
20260501222326 28 61 17.7 20.9 0.00 1.60 1.60 76 1012.2
20260501221823 28 63 20.9 33.8 0.00 1.60 1.60 77 1012.2
20260501221320 28 75 11.3 14.5 0.00 1.60 1.60 79 1012.2
20260501220818 27 70 16.1 20.9 0.00 1.60 1.60 80 1012.2
20260501220315 27 66 14.5 17.7 0.00 1.60 1.60 81 1012.2
20260501215812 27 58 14.5 19.3 0.00 1.60 1.60 81 1012.2
20260501215307 27 61 12.9 16.1 0.00 1.60 1.60 80 1012.2
20260501214803 27 73 14.5 19.3 0.00 1.60 1.60 80 1012.2
20260501214259 27 73 11.3 12.9 0.00 1.60 1.60 81 1012.2
20260501213755 27 65 16.1 19.3 0.00 1.60 1.60 81 1012.2
20260501213251 27 66 12.9 17.7 0.00 1.60 1.60 82 1012.2
20260501212747 27 65 11.3 14.5 0.00 1.60 1.60 82 1012.2
20260501212244 26 60 9.7 12.9 0.00 1.60 1.60 83 1012.2
20260501211741 26 49 11.3 14.5 0.00 1.60 1.60 84 1012.2
20260501211238 26 54 8.0 11.3 0.00 1.60 1.60 84 1012.2
20260501210735 26 57 8.0 9.7 0.00 1.60 1.60 85 1011.8
20260501210232 26 59 9.7 11.3 0.00 1.60 1.60 85 1012.2
20260501205728 26 63 9.7 11.3 0.00 1.60 1.60 85 1011.8
20260501205225 26 70 8.0 11.3 0.00 1.60 1.60 85 1011.8
20260501204722 26 59 9.7 11.3 0.00 1.60 1.60 85 1011.8
20260501204219 26 57 9.7 11.3 0.00 1.60 1.60 85 1011.8
20260501203715 26 57 9.7 11.3 0.00 1.60 1.60 85 1011.8
20260501203213 26 56 11.3 16.1 0.00 1.60 1.60 85 1011.8
20260501202709 26 50 12.9 16.1 0.00 1.60 1.60 85 1011.8
20260501202206 26 55 12.9 16.1 0.00 1.60 1.60 85 1011.8
20260501201703 26 43 9.7 11.3 0.00 1.60 1.60 86 1011.8
20260501201200 26 61 12.9 16.1 0.00 1.60 1.60 86 1011.8
20260501200656 26 48 9.7 11.3 0.00 1.60 1.60 86 1011.5
20260501200154 26 49 9.7 12.9 0.00 1.60 1.60 86 1011.5
20260501195651 26 54 8.0 9.7 0.00 1.60 1.60 86 1011.5
20260501195147 26 53 9.7 12.9 0.00 1.60 1.60 86 1011.5
20260501194643 26 45 8.0 9.7 0.00 1.60 1.60 86 1011.5
20260501194138 26 50 9.7 12.9 0.00 1.60 1.60 87 1011.5
20260501193636 26 57 8.0 9.7 0.00 1.60 1.60 87 1011.5
20260501193135 26 81 6.4 8.0 0.00 1.60 1.60 87 1011.5
20260501192631 26 77 8.0 9.7 0.00 1.60 1.60 87 1011.5
20260501192129 26 109 6.4 6.4 0.00 1.60 1.60 86 1011.5
20260501191626 26 75 6.4 9.7 0.00 1.60 1.60 86 1011.5
20260501191123 26 60 9.7 12.9 0.00 1.60 1.60 86 1011.5
20260501190619 26 61 9.7 12.9 0.00 1.60 1.60 86 1011.5
20260501190114 26 49 8.0 9.7 0.00 1.60 1.60 87 1011.5
20260501185611 26 49 8.0 12.9 0.00 1.60 1.60 87 1011.1
20260501185107 26 53 8.0 9.7 0.00 1.60 1.60 87 1011.1
20260501184603 26 53 8.0 9.7 0.00 1.60 1.60 87 1011.1
20260501184058 26 53 4.8 6.4 0.00 1.60 1.60 87 1011.5
20260501183555 26 62 6.4 9.7 0.00 1.60 1.60 87 1011.5
20260501183051 26 78 3.2 4.8 0.00 1.60 1.60 87 1011.5
20260501182548 26 66 9.7 11.3 0.00 1.60 1.60 87 1011.5
20260501182045 26 62 9.7 14.5 0.00 1.60 1.60 88 1011.5
20260501181542 26 88 8.0 11.3 0.00 1.60 1.60 88 1011.5
20260501181039 26 81 8.0 11.3 0.00 1.60 1.60 88 1011.5
20260501180537 26 75 11.3 16.1 0.00 1.60 1.60 89 1011.5
20260501180032 25 95 6.4 8.0 0.00 1.60 1.60 89 1011.5
20260501175529 25 100 9.7 12.9 0.00 1.60 1.60 90 1011.5
20260501175026 25 85 8.0 9.7 0.00 1.60 1.60 90 1011.5
20260501174523 25 81 8.0 11.3 0.00 1.60 1.60 90 1011.5
20260501174021 25 59 6.4 9.7 0.00 1.60 1.60 90 1011.5
20260501173518 25 131 0.0 0.0 0.00 1.60 1.60 90 1011.5
20260501173015 25 131 0.0 0.0 0.00 1.60 1.60 90 1011.8
20260501172510 25 131 0.0 0.0 0.00 1.60 1.60 90 1011.5
20260501172006 25 131 0.0 0.0 0.00 1.60 1.60 90 1011.8
20260501171502 25 113 6.4 9.7 0.00 1.50 1.50 90 1012.2
20260501170959 25 114 12.9 16.1 3.61 1.24 1.24 90 1012.2
20260501170455 25 104 12.9 17.7 3.61 0.84 0.84 90 1012.2
20260501165953 25 94 17.7 24.1 2.39 0.66 0.66 90 1011.8
20260501165451 25 103 9.7 14.5 0.00 0.46 0.46 90 1012.2
20260501164948 25 98 8.0 11.3 0.00 0.41 0.41 89 1011.8
20260501164446 25 93 11.3 16.1 0.00 0.28 0.28 89 1011.8
20260501163942 25 73 17.7 22.5 0.00 0.25 0.25 89 1011.8
20260501163438 25 87 16.1 19.3 0.00 0.23 0.23 89 1011.8
20260501162935 25 80 19.3 29.0 0.00 0.18 0.18 88 1011.8
20260501162432 25 85 9.7 14.5 0.00 0.15 0.15 88 1012.2
20260501161929 25 65 12.9 16.1 0.00 0.15 0.15 88 1012.2
20260501161426 25 46 11.3 14.5 0.00 0.15 0.15 88 1011.8
20260501160922 26 58 9.7 12.9 0.00 0.15 0.15 88 1011.8